Theta_e
297 296 295 295 295 296 295 299 303 303 302 302 302 303 303 302 302 302 301 301 301 301
296 296 295 295 295 296 298 303 303 302 301 302 303 303 303 302 302 302 302 301 302 301
296 296 296 295 296 297 300 302 302 302 302 303 303 303 303 302 303 302 303 303 303 302
295 296 296 296 297 298 299 301 301 302 302 302 303 304 303 303 304 304 304 305 305 304
295 295 295 296 297 299 299 302 301 301 302 302 303 303 303 303 305 304 304 304 305 305
295 295 295 296 297 299 299 300 301 301 301 301 302 301 302 304 304 304 304 305 304 305
295 295 295 296 297 298 298 296 299 301 302 302 301 300 300 303 304 304 304 304 304 305
296 296 296 296 296 296 294 294 296 300 301 301 301 299 300 302 303 303 303 303 303 304
296 296 296 297 295 292 291 292 293 296 298 300 300 300 300 301 302 303 302 301 302 302
296 297 297 294 292 290 290 290 291 294 294 294 296 299 298 300 301 302 302 301 301 301
296 297 295 291 289 289 289 289 290 293 292 291 293 297 297 298 299 301 301 301 300 299
296 296 294 290 288 288 288 288 289 290 290 290 291 295 296 296 296 299 300 301 300 299
296 295 293 289 289 288 287 289 290 290 289 293 289 294 295 295 296 298 298 299 299 299
295 293 292 288 288 289 289 289 289 288 288 289 290 291 295 295 296 295 296 296 296 297
Wind_Speed
7 2 2 3 4 4 4 6 9 9 8 11 10 10 10 8 8 10 9 12 11 9
3 5 5 7 5 4 5 7 10 10 10 11 11 11 11 8 10 10 10 10 11 9
4 4 4 5 6 7 7 8 10 11 11 12 11 12 11 9 10 11 8 8 10 10
5 5 6 6 6 6 6 8 9 10 11 12 12 12 11 11 11 12 11 10 9 11
6 5 6 6 7 7 7 8 8 9 10 11 12 12 11 12 12 12 11 12 10 10
6 6 7 7 7 7 7 9 9 7 8 10 11 11 11 10 11 12 12 12 11 10
7 7 7 7 7 6 7 7 8 6 6 8 9 10 11 10 10 11 11 12 12 11
7 7 7 7 7 6 7 6 6 5 5 7 7 8 11 10 9 9 11 11 11 11
6 6 6 6 7 7 7 7 6 6 6 7 6 16 20 14 8 9 9 11 12 11
6 6 6 6 7 8 8 6 6 6 7 8 8 16 19 19 6 7 8 9 10 10
6 6 6 7 7 7 5 7 5 6 7 6 7 16 18 17 7 6 6 7 9 9
5 5 4 6 7 5 5 6 5 5 7 7 8 16 18 11 6 6 6 6 7 10
5 4 2 3 5 3 3 4 5 6 6 10 8 14 17 15 5 7 6 7 7 14
5 3 1 2 2 4 5 6 7 7 7 7 7 9 15 15 6 5 4 5 7 7
Wind_Direction
38 10 312 299 305 293 282 301 314 319 308 311 302 306 303 297 295 291 285 282 275 272
9 9 334 317 297 285 297 325 327 320 317 316 319 316 312 307 301 294 286 278 275 271
354 326 318 309 323 322 323 323 324 326 328 327 325 324 322 311 304 299 295 288 284 279
331 328 313 305 306 307 313 320 324 329 332 332 333 332 327 322 316 314 315 312 305 295
313 315 311 317 317 313 308 315 312 322 337 336 332 333 334 333 332 335 332 330 325 322
323 326 330 326 317 315 314 315 315 314 342 334 330 333 332 336 340 341 339 338 335 329
338 334 319 307 313 324 314 312 313 315 321 329 326 335 335 335 344 349 347 348 347 339
325 319 311 318 325 317 324 316 305 317 329 328 331 342 344 333 331 341 344 350 353 353
326 320 320 336 337 340 329 332 343 1 350 336 331 340 345 350 326 335 347 351 349 353
325 322 338 346 350 344 337 339 356 13 2 342 333 345 344 346 336 338 348 359 360 356
306 324 351 355 352 345 344 349 340 349 351 340 333 344 343 341 340 348 351 1 5 359
309 331 358 2 350 344 348 352 349 335 349 349 333 341 348 356 351 336 344 0 3 18
327 357 339 357 351 333 345 336 339 346 348 343 331 339 352 2 342 357 356 2 9 9
343 352 184 12 359 3 9 7 359 351 334 333 337 329 349 355 2 348 338 4 1 3